[[{"header":{"parameterUnit":"m.s-1","parameterCategory":1,"la1":30.2991,"la2":30.254,"lo1":-89.0895,"lo2":-89.0444,"dy":0.0017,"dx":0.0017,"nx":28,"ny":28,"refTime":"2025-11-20T03:00:00:Z","depth":0,"parameterNumber":2,"parameterNumberName":"U-component_of_WINDS"},"data":[0,0,0,0,0,0,0,0,0,0,0,0,0,0,0,0,0,0,0,0,0,0,0,0,0,0,0,0,0,0,0,0,0,0,0,0,0,0,0,0,0,0,0,0,0,0,0,0,0,0,0,0,0,0,0,0,0,0,0.385,0.3851,0,0.3937,0.3938,0.3939,0.4008,0.4009,0.401,0.401,0.4097,0.4099,0.4101,0,0,0,0,0,0,0,0,0,0,0,0,0,0.3741,0.3742,0.385,0.3851,0.3852,0.3937,0.3938,0.3939,0.4008,0.4009,0.401,0.4011,0.4097,0.4099,0.4101,0,0,0,0,0,0,0,0,0,0,0,0,0,0.3804,0.3743,0.385,0.3897,0.3902,0.3937,0.3938,0.394,0.4008,0.4009,0.401,0.4011,0.4096,0.4099,0.4101,0.4096,0,0,0.4109,0.411,0,0,0,0,0,0,0,0,0.38,0.3808,0.3889,0.3894,0.3899,0.3963,0.3932,0.3992,0.4008,0.3968,0.401,0.4012,0.4052,0.4058,0.4072,0.41,0.4103,0.4109,0.4111,0.4112,0.4112,0,0,0,0,0,0,0,0.3796,0.3804,0.3884,0.389,0.3896,0.3913,0.3923,0.3943,0.4003,0.3971,0.3977,0.3986,0.4055,0.4069,0.4074,0.4105,0.4109,0.4111,0.4113,0.4114,0.413,0.4129,0,0,0,0,0,0,0.3784,0.38,0.3882,0.3887,0.3851,0.3914,0.3925,0.3941,0.4003,0.4013,0.3985,0.3989,0.4065,0.4071,0.4078,0.4074,0.4112,0.4114,0.4115,0.4132,0.413,0.4129,0,0,0,0,0,0,0.3782,0.3791,0.3878,0.3845,0.3857,0.3915,0.3932,0.3943,0.3957,0.4013,0.4024,0.3989,0.4066,0.4074,0.409,0.4078,0.4115,0.4117,0.4133,0.4131,0.413,0.4067,0,0,0,0,0,0,0.3778,0.379,0.3789,0.3845,0.3859,0.389,0.3932,0.3944,0.3962,0.3968,0.402,0.4029,0.4067,0.4086,0.4093,0.4082,0.4119,0.4134,0.4132,0.413,0.407,0.4064,0.4058,0,0,0,0,0,0.3774,0.3767,0.3788,0.3798,0.3859,0.3889,0.3897,0.3941,0.396,0.3959,0.3995,0.4028,0.4079,0.4087,0.4095,0.4085,0.4135,0.4133,0.413,0.4073,0.4065,0.4058,0,0,0,0,0,0,0.3708,0.3776,0.38,0.3811,0.3844,0.3901,0.3901,0.3931,0.3959,0.3963,0.4016,0.4027,0.4037,0.4063,0.4072,0.4082,0.4111,0.411,0.4065,0.4057,0.4051,0.4044,0.4121,0,0,0,0,0,0.3695,0.3714,0.3772,0.3776,0.3792,0.3843,0.3858,0.3889,0.3925,0.3939,0.3976,0.4009,0.4032,0.4046,0.4071,0.4075,0.4086,0.4072,0.4065,0.406,0.4058,0.406,0.4054,0.4121,0.4121,0.4121,0,0,0.3668,0.3707,0.3716,0.3764,0.3793,0.3811,0.3854,0.3872,0.3885,0.3942,0.3959,0.3987,0.4027,0.4036,0.4042,0.4058,0.4042,0.4057,0.4052,0.4053,0.4057,0.4051,0.4045,0.412,0.412,0.412,0,0,0.3627,0.3659,0.3666,0.3694,0.3738,0.3772,0.3773,0.3826,0.3847,0.3865,0.3907,0.3924,0.3963,0.399,0.4008,0.3976,0.4007,0.3983,0.3949,0.3951,0.3945,0.3941,0.3928,0.3923,0.3981,0.3981,0.3981,0,0.3587,0.3617,0.3665,0.368,0.3699,0.3752,0.3758,0.3783,0.3832,0.3843,0.3861,0.391,0.3941,0.3957,0.3949,0.3963,0.3965,0.3977,0.3942,0.3938,0.3935,0.3923,0.3918,0.3978,0.3978,0.3979,0.3979,0,0.3565,0.3585,0.3585,0.3631,0.3651,0.3661,0.371,0.3723,0.3753,0.3784,0.3802,0.384,0.3873,0.388,0.3908,0.3899,0.3907,0.3933,0.3962,0.3924,0.3914,0.391,0.3973,0.3974,0.3975,0.3976,0,0,0.3485,0.3558,0.3557,0.3578,0.363,0.3645,0.3657,0.369,0.37,0.3732,0.3742,0.3774,0.3798,0.3819,0.3851,0.3853,0.3823,0.3878,0.388,0.3865,0.3813,0.3792,0.3787,0.3844,0.3843,0.3843,0.3809,0,0.3451,0.3477,0.352,0.3531,0.3549,0.3599,0.3609,0.3641,0.3671,0.369,0.3723,0.3744,0.3775,0.3787,0.3791,0.3826,0.3813,0.3829,0.3853,0.3853,0.384,0.3782,0.376,0.3727,0.3806,0.3805,0.3805,0,0.3416,0.3445,0.3457,0.3507,0.3516,0.3525,0.3557,0.3575,0.3612,0.3634,0.3657,0.3692,0.3706,0.3734,0.3753,0.3763,0.3775,0.3793,0.3793,0.3796,0.3826,0.3782,0.3717,0.3711,0.3799,0.38,0.38,0,0.3354,0.3396,0.3409,0.3426,0.3484,0.3489,0.3513,0.3552,0.3568,0.3596,0.3607,0.3637,0.3652,0.3674,0.3715,0.3732,0.3729,0.3761,0.3747,0.3745,0.3743,0.3742,0.3678,0.3753,0.3753,0.3753,0.3753,0,0.3311,0.3316,0.3382,0.339,0.3397,0.3446,0.3451,0.348,0.3514,0.3527,0.3572,0.3583,0.3638,0.3656,0.3688,0.3698,0.3706,0.3722,0.3731,0.3718,0.3715,0.3725,0.3728,0.3752,0.3752,0.3752,0.3752,0,0.3243,0.3287,0.3304,0.3358,0.3372,0.3374,0.342,0.3429,0.3461,0.3477,0.3484,0.3535,0.3557,0.3601,0.3636,0.3658,0.366,0.3676,0.3648,0.3653,0.3635,0.3635,0.3574,0.3568,0.3648,0.3647,0.3646,0,0.3212,0.3217,0.3271,0.3284,0.3307,0.3326,0.3343,0.3392,0.3407,0.345,0.3453,0.3479,0.3502,0.3536,0.3575,0.3602,0.3618,0.3594,0.3622,0.3608,0.3615,0.3614,0.3614,0.3588,0.3586,0.3586,0.3585,0,0.3151,0.3173,0.3196,0.3226,0.3246,0.3272,0.33,0.3308,0.3363,0.3378,0.3402,0.342,0.3456,0.348,0.3513,0.3537,0.3569,0.3576,0.3574,0.356,0.3542,0.355,0.3629,0.3577,0.3578,0.3578,0.3579,0.3579,0.31,0.3106,0.3145,0.3169,0.3196,0.3221,0.3232,0.3266,0.3287,0.332,0.3347,0.3368,0.3404,0.3451,0.3473,0.349,0.3505,0.3502,0.3502,0.35,0.3493,0.3541,0.3496,0.3496,0.3496,0.3497,0.3497,0,0.304,0.3068,0.309,0.3128,0.3146,0.3177,0.321,0.3223,0.3241,0.3272,0.3294,0.3321,0.3345,0.3386,0.3414,0.3419,0.3434,0.3424,0.3423,0.3428,0.3479,0.3477,0.3411,0.3411,0.3411,0.3411,0.3411,0.3411,0.3011,0.3023,0.305,0.3075,0.3103,0.3124,0.314,0.3163,0.3188,0.3216,0.3237,0.3264,0.3298,0.3329,0.3352,0.3363,0.337,0.3355,0.3371,0.3417,0.3425,0.3432,0.3431,0.3357,0.3357,0.3319,0.3319,0.3318]},{"header":{"parameterUnit":"m.s-1","parameterCategory":1,"la1":30.2991,"la2":30.254,"lo1":-89.0895,"lo2":-89.0444,"dy":0.0017,"dx":0.0017,"nx":28,"ny":28,"refTime":"2025-11-20T03:00:00:Z","depth":0,"parameterNumber":3,"parameterNumberName":"V-component_of_WINDS"},"data":[0,0,0,0,0,0,0,0,0,0,0,0,0,0,0,0,0,0,0,0,0,0,0,0,0,0,0,0,0,0,0,0,0,0,0,0,0,0,0,0,0,0,0,0,0,0,0,0,0,0,0,0,0,0,0,0,0,0,1.7989,1.7988,0,1.7941,1.7941,1.794,1.7933,1.7933,1.7934,1.7934,1.788,1.7878,1.7876,0,0,0,0,0,0,0,0,0,0,0,0,0,1.8069,1.8068,1.7989,1.7988,1.7987,1.7941,1.7941,1.794,1.7933,1.7933,1.7934,1.7934,1.7881,1.7879,1.7876,0,0,0,0,0,0,0,0,0,0,0,0,0,1.8029,1.8067,1.7989,1.7978,1.7977,1.7941,1.7941,1.794,1.7933,1.7933,1.7934,1.7935,1.7881,1.7879,1.7876,1.7846,0,0,1.7867,1.7866,0,0,0,0,0,0,0,0,1.8031,1.8026,1.7981,1.7979,1.7978,1.7944,1.7949,1.7908,1.7933,1.7949,1.7934,1.7935,1.79,1.7896,1.7886,1.7843,1.7841,1.7867,1.7866,1.7864,1.7864,0,0,0,0,0,0,0,1.8034,1.8028,1.797,1.798,1.7978,1.7975,1.797,1.7941,1.7921,1.7948,1.7947,1.7942,1.79,1.7888,1.7884,1.784,1.7867,1.7865,1.7863,1.7862,1.7772,1.7771,0,0,0,0,0,0,1.8039,1.803,1.7971,1.7968,1.8007,1.7973,1.7968,1.7954,1.7922,1.7918,1.7942,1.7942,1.7893,1.7887,1.7882,1.7846,1.7864,1.7862,1.786,1.7773,1.7772,1.7771,0,0,0,0,0,0,1.8041,1.8034,1.7973,1.7999,1.7991,1.7971,1.7956,1.7953,1.7941,1.7917,1.7913,1.7934,1.7893,1.7886,1.7856,1.7844,1.7861,1.7858,1.7774,1.7772,1.7771,1.7772,0,0,0,0,0,0,1.8043,1.8035,1.8024,1.7999,1.799,1.7948,1.7955,1.7951,1.7937,1.7937,1.7909,1.7905,1.7893,1.786,1.7853,1.784,1.7856,1.7775,1.7773,1.7772,1.7773,1.7771,1.7769,0,0,0,0,0,1.8046,1.8024,1.8023,1.8016,1.7976,1.7948,1.7942,1.7931,1.7936,1.7924,1.791,1.7906,1.7847,1.7857,1.7849,1.7835,1.7775,1.7774,1.7772,1.7774,1.7771,1.7769,0,0,0,0,0,0,1.8045,1.802,1.8019,1.7988,1.7971,1.7946,1.7931,1.7928,1.7907,1.7907,1.7892,1.7886,1.7857,1.7843,1.7855,1.7805,1.7811,1.7808,1.7815,1.7813,1.7811,1.7815,1.7854,0,0,0,0,0,1.8042,1.8022,1.8001,1.7976,1.7967,1.7951,1.7938,1.7931,1.7911,1.7903,1.7885,1.7865,1.7842,1.7826,1.7804,1.7771,1.7765,1.7758,1.7756,1.7755,1.7752,1.7735,1.7732,1.7766,1.7766,1.7766,0,0,1.8033,1.8017,1.8005,1.7975,1.796,1.794,1.7944,1.7921,1.7906,1.7899,1.787,1.7856,1.7832,1.7801,1.7787,1.7789,1.7742,1.7753,1.7752,1.775,1.7733,1.773,1.7728,1.7765,1.7765,1.7765,0,0,1.8007,1.7994,1.7972,1.7958,1.7937,1.7927,1.7922,1.7899,1.7891,1.7862,1.7857,1.7837,1.7797,1.7781,1.7768,1.774,1.7735,1.7732,1.7723,1.7707,1.7704,1.7702,1.7692,1.7689,1.773,1.773,1.773,0,1.7999,1.7969,1.7961,1.7939,1.7926,1.7922,1.79,1.7886,1.7858,1.7848,1.7852,1.7804,1.7787,1.7753,1.7747,1.7736,1.7729,1.7735,1.7706,1.7703,1.7701,1.7692,1.7688,1.773,1.773,1.773,1.773,0,1.796,1.794,1.7925,1.7901,1.7886,1.7864,1.7852,1.7838,1.7833,1.7823,1.7794,1.7775,1.7749,1.774,1.7734,1.7706,1.7708,1.7709,1.7714,1.7698,1.7689,1.7685,1.7729,1.7729,1.7729,1.7729,0,0,1.793,1.7904,1.7899,1.7889,1.7866,1.785,1.7828,1.7805,1.7794,1.7775,1.7757,1.7725,1.7727,1.7711,1.7704,1.769,1.767,1.7692,1.7691,1.7689,1.7639,1.7638,1.7634,1.7668,1.7667,1.7667,1.7641,0,1.7902,1.7865,1.7858,1.7826,1.7807,1.7804,1.7786,1.777,1.776,1.7742,1.773,1.7708,1.7712,1.7703,1.7689,1.7675,1.766,1.7677,1.765,1.7649,1.7656,1.763,1.7628,1.7605,1.7637,1.7637,1.7636,0,1.7863,1.7847,1.7814,1.7796,1.7788,1.7772,1.7752,1.7735,1.7717,1.7711,1.7696,1.769,1.7668,1.7676,1.7644,1.7656,1.7645,1.7637,1.7636,1.7632,1.7641,1.7625,1.7597,1.7594,1.7631,1.7631,1.7632,0,1.7845,1.7814,1.7791,1.7782,1.7761,1.775,1.7741,1.7724,1.7711,1.7693,1.7685,1.7664,1.7652,1.7636,1.7625,1.7632,1.7595,1.7601,1.7589,1.7589,1.758,1.758,1.7549,1.7573,1.7573,1.7573,1.7573,0,1.7814,1.7794,1.7783,1.7768,1.7746,1.7739,1.7716,1.7706,1.7692,1.7675,1.7671,1.7655,1.7642,1.7624,1.7615,1.7591,1.7585,1.758,1.7577,1.758,1.7581,1.7571,1.7573,1.7572,1.7572,1.7573,1.7573,0,1.7789,1.7781,1.7756,1.7739,1.7735,1.7719,1.7705,1.769,1.7682,1.7661,1.7655,1.7641,1.762,1.7609,1.7581,1.7576,1.7549,1.7547,1.7556,1.7555,1.7543,1.7544,1.7504,1.7499,1.7526,1.7526,1.7526,0,1.7769,1.7754,1.7738,1.7727,1.7719,1.7701,1.769,1.7682,1.767,1.7651,1.7639,1.7619,1.7602,1.7569,1.7555,1.7535,1.7533,1.752,1.7529,1.7533,1.7533,1.7534,1.7533,1.7518,1.7518,1.7518,1.7518,0,1.7735,1.7733,1.7718,1.7702,1.7689,1.7675,1.7661,1.7653,1.7643,1.763,1.761,1.7597,1.7572,1.7552,1.7531,1.752,1.7517,1.7516,1.7512,1.7513,1.7519,1.7517,1.7551,1.7516,1.7516,1.7516,1.7516,1.7516,1.7712,1.77,1.7687,1.767,1.766,1.7649,1.7635,1.7627,1.7611,1.7591,1.7587,1.7566,1.7551,1.7524,1.7512,1.7496,1.7498,1.7492,1.749,1.7489,1.7489,1.7523,1.7492,1.7492,1.7492,1.7492,1.7492,0,1.7679,1.7671,1.7657,1.7639,1.7627,1.7628,1.7614,1.7603,1.7585,1.7572,1.7557,1.7535,1.7517,1.7503,1.7484,1.7473,1.7472,1.7469,1.7469,1.7467,1.7487,1.7493,1.747,1.747,1.747,1.747,1.747,1.747,1.766,1.7639,1.7636,1.761,1.7603,1.7584,1.7576,1.7565,1.7555,1.7532,1.7517,1.751,1.7497,1.7477,1.746,1.7457,1.745,1.7447,1.7443,1.7463,1.7465,1.7467,1.7472,1.7446,1.7446,1.7424,1.7424,1.7424]}]]